Regional Weather Roundup
Issued by NWS

Home | Current Version | Previous Version | Graphics & Text | Print | Product List | Glossary On
Versions: 1 2 3 4 5 6 7 8 9 10 11 12 13 14 15 16 17 18 19 20 21 22 23 24 25 26 27 28 29 30 31 32 33 34 35 36 37 38 39 40 41 42 43 44 45 46 47 48 49 50
000
ASUS45 KBOI 270210
RWRID

IDAHO REGIONAL WEATHER ROUNDUP
NATIONAL WEATHER SERVICE BOISE ID
800 PM MDT WED APR 26 2017

NOTE: "FAIR" INDICATES FEW OR NO CLOUDS BELOW 12000 FEET
WITH NO SIGNIFICANT WEATHER AND/OR OBSTRUCTIONS TO VISIBILITY

IDZ012-014-270300-
SOUTHWEST IDAHO


CITY           SKY/WX    TMP DP  RH WIND       PRES   REMARKS
BOISE          MOCLDY    47  43  86 NW5       29.72S
CALDWELL       LGT RAIN  50  45  83 NW16G28   29.75R
MOUNTAIN HOME  MOCLDY    46  46 100 W8        29.72F
$$

IDZ016-017-270300-
SOUTHCENTRAL IDAHO


CITY           SKY/WX    TMP DP  RH WIND       PRES   REMARKS
BURLEY         MOCLDY    47  39  74 W8        29.69F
JEROME         PTCLDY    46  40  79 SW13      29.71F
TWIN FALLS     PTCLDY    46  42  86 W9        29.72S
$$

IDZ019>023-270300-
SOUTHEAST IDAHO


CITY           SKY/WX    TMP DP  RH WIND       PRES   REMARKS
IDAHO FALLS    CLOUDY    42  39  89 S16       29.68F
POCATELLO      CLOUDY    43  40  89 S10       29.70F
REXBURG        CLOUDY    42  38  85 S17G23    29.66S
$$

IDZ006-010-011-018-031-032-270300-
CENTRAL IDAHO MOUNTAINS


CITY           SKY/WX    TMP DP  RH WIND       PRES   REMARKS
MCCALL         LGT RAIN  36  33  89 W8        29.71R WCI  30
HAILEY         PTCLDY    43  37  81 CALM      29.66F
STANLEY          N/A     37  33  85 CALM      29.69S
SALMON         PTCLDY    45  37  76 S5        29.63F
CHALLIS        MOCLDY    48  26  42 W12       29.62S
$$

IDZ002-004-006-007-026-270300-
NORTHERN IDAHO


CITY           SKY/WX    TMP DP  RH WIND       PRES   REMARKS
LEWISTON       MOCLDY    50  42  74 S6        29.75S
LOWELL           N/A     45  43  93 CALM      29.79R
COEUR D`ALENE  LGT RAIN  47  40  76 S10       29.68S
MULLAN PASS    SNOW      29  29 100 VRB5      29.66S VSB 1/4 WCI  24
$$



USA.gov is the U.S. government's official web portal to all federal, state and local government web resources and services.